Regional Weather Roundup
Issued by NWS

Home | Current Version | Previous Version | Graphics & Text | Print | Product List | Glossary On
Versions: 1 2 3 4 5 6 7 8 9 10 11 12 13 14 15 16 17 18 19 20 21 22 23 24 25 26 27 28 29 30 31 32 33 34 35 36 37 38 39 40 41 42 43 44 45 46 47 48 49 50
000
ASUS45 KCYS 240710
RWRWY

WYOMING REGIONAL WEATHER ROUNDUP
NATIONAL WEATHER SERVICE CHEYENNE WY
100 AM MDT SUN JUL 24 2016

NOTE:  "FAIR" INDICATES FEW OR NO CLOUDS BELOW 12,000 FEET
WITH NO SIGNIFICANT WEATHER AND/OR OBSTRUCTIONS TO VISIBILITY.

WYZ001-240800-
YELLOWSTONE NATIONAL PARK

CITY           SKY/WX    TMP DP  RH WIND       PRES   REMARKS
LK YELLOWSTONE   N/A     44  34  67 CALM      30.36F
W YELLOWSTONE  NOT AVBL

$$
WYZ002>013-054>058-071-098>099-240800-
NORTHERN WYOMING

CITY           SKY/WX    TMP DP  RH WIND       PRES   REMARKS
JACKSON        FAIR      45  28  53 CALM      30.26S
CODY           FAIR      63  37  39 NW7       30.19S
GREYBULL       FAIR      71  38  29 NW8       30.07R
WORLAND        FAIR      63  40  42 W9        30.11R
SHERIDAN       FAIR      57  42  57 SE5       30.15S
BUFFALO        FAIR      62  36  37 W8        30.22R
GILLETTE       FAIR      55  39  54 SW5       30.15R
HULETT         FAIR      63  39  42 NE3       30.16S
NEWCASTLE      FAIR      68  32  26 CALM      30.12R

$$
WYZ014>020-022>026-101>103-240800-
CENTRAL WYOMING

CITY           SKY/WX    TMP DP  RH WIND       PRES   REMARKS
BIG PINEY      FAIR      47  22  37 NW6       30.29S
PINEDALE       FAIR      45  32  61 N5        30.30S
DUBOIS         CLOUDY    52  23  32 W10       30.28S
LANDER         FAIR      70  38  31 W3        30.19R
RIVERTON       FAIR      69  31  24 N14       30.18R
CASPER         FAIR      66  38  35 NE16      30.12S
DOUGLAS          N/A    N/A N/A N/A MISG      30.14R

$$
WYZ021-027>030-104>119-240800-
SOUTHERN WYOMING

CITY           SKY/WX    TMP DP  RH WIND       PRES   REMARKS
EVANSTON       FAIR      60  20  21 E3        30.28S
KEMMERER         N/A     55  28  35 N10       30.30R
FORT BRIDGER   FAIR      61  19  19 SW5       30.30S
ROCK SPRINGS   FAIR      62  20  19 S5        30.25R
DIXON          FAIR      64  39  39 SE7       30.26F
RAWLINS        FAIR      68  11  11 W12G20    30.23R
SARATOGA       FAIR      57  36  44 CALM      30.27S
LARAMIE        FAIR      63  45  51 SE14      30.26F
CHEYENNE       FAIR      67  48  50 SW8       30.24R
TORRINGTON     FAIR      70  50  49 E12G30    30.08R
PINE BLUFFS    FAIR      66  52  59 S9        30.15S

$$



USA.gov is the U.S. government's official web portal to all federal, state and local government web resources and services.